| time (UTC) | temp F | wind direction | speed MPH | gust MPH | rain 1hr in | rain 24hr in | rain mn in | humidity % | barometer mb |
| 20260504184527 | 50 | 170 | 4.0 | 10.0 | 0.00 | 0.00 | 0.00 | 75 | 1009.6 |
| 20260504183023 | 50 | 214 | 3.0 | 10.0 | 0.00 | 0.00 | 0.00 | 74 | 1009.6 |
| 20260504181514 | 50 | 186 | 4.0 | 12.0 | 0.00 | 0.00 | 0.00 | 73 | 1009.6 |
| 20260504174508 | 51 | 142 | 4.0 | 16.0 | 0.00 | 0.00 | 0.00 | 70 | 1009.6 |
| 20260504173006 | 52 | 207 | 2.0 | 13.0 | 0.00 | 0.00 | 0.00 | 68 | 1009.7 |
| 20260504171503 | 52 | 203 | 3.0 | 12.0 | 0.00 | 0.00 | 0.00 | 68 | 1009.6 |
| 20260504081515 | 51 | 242 | 3.0 | 8.0 | 0.00 | 0.00 | 0.00 | 58 | 1009.0 |
| 20260504044505 | 43 | 255 | 1.0 | 5.0 | 0.00 | 0.00 | 0.00 | 75 | 1006.7 |
| 20260504043115 | 43 | 215 | 1.0 | 6.0 | 0.00 | 0.00 | 0.00 | 76 | 1006.6 |
| 20260504043002 | 43 | 215 | 1.0 | 6.0 | 0.00 | 0.01 | 0.00 | 76 | 1006.6 |
| 20260504041559 | 43 | 232 | 1.0 | 3.0 | 0.00 | 0.01 | 0.00 | 80 | 1006.5 |
| 20260504034555 | 44 | 205 | 0.0 | 5.0 | 0.00 | 0.01 | 0.00 | 82 | 1006.4 |
| 20260504033104 | 44 | 247 | 1.0 | 9.0 | 0.00 | 0.01 | 0.00 | 82 | 1006.2 |
| 20260504031558 | 44 | 224 | 1.0 | 6.0 | 0.00 | 0.01 | 0.00 | 84 | 1006.0 |
| 20260504024502 | 43 | 192 | 0.0 | 2.0 | 0.00 | 0.01 | 0.00 | 94 | 1006.0 |
| 20260504023002 | 42 | 202 | 1.0 | 4.0 | 0.00 | 0.01 | 0.00 | 95 | 1006.0 |
| 20260504021502 | 41 | 212 | 0.0 | 1.0 | 0.00 | 0.01 | 0.00 | 95 | 1006.0 |
| 20260504014514 | 40 | 199 | 0.0 | 2.0 | 0.00 | 0.01 | 0.00 | 95 | 1005.9 |
| 20260504013019 | 41 | 197 | 0.0 | 2.0 | 0.00 | 0.01 | 0.00 | 95 | 1006.0 |
| 20260504011512 | 41 | 199 | 0.0 | 2.0 | 0.00 | 0.01 | 0.00 | 95 | 1006.0 |
| 20260504004558 | 42 | 197 | 0.0 | 2.0 | 0.00 | 0.01 | 0.00 | 95 | 1006.0 |
| 20260504003059 | 41 | 200 | 0.0 | 2.0 | 0.00 | 0.01 | 0.00 | 95 | 1006.0 |
| 20260504001559 | 41 | 200 | 0.0 | 3.0 | 0.00 | 0.01 | 0.00 | 94 | 1006.0 |
| 20260503234543 | 42 | 167 | 0.0 | 1.0 | 0.00 | 0.01 | 0.00 | 94 | 1006.2 |
| 20260503233041 | 42 | 169 | 0.0 | 2.0 | 0.00 | 0.01 | 0.00 | 93 | 1006.3 |
| 20260503231538 | 43 | 169 | 0.0 | 1.0 | 0.00 | 0.01 | 0.00 | 93 | 1006.4 |
| 20260503224550 | 44 | 183 | 0.0 | 2.0 | 0.00 | 0.01 | 0.00 | 92 | 1006.5 |
| 20260503223101 | 44 | 183 | 0.0 | 2.0 | 0.00 | 0.01 | 0.00 | 92 | 1006.7 |
| 20260503221550 | 45 | 182 | 1.0 | 2.0 | 0.00 | 0.01 | 0.00 | 92 | 1006.8 |
| 20260503214551 | 45 | 167 | 0.0 | 2.0 | 0.00 | 0.01 | 0.00 | 91 | 1006.8 |
| 20260503213036 | 46 | 169 | 0.0 | 0.0 | 0.00 | 0.01 | 0.00 | 90 | 1007.2 |
| 20260503211533 | 46 | 169 | 0.0 | 0.0 | 0.00 | 0.01 | 0.00 | 90 | 1007.1 |
| 20260503204525 | 47 | 169 | 0.0 | 2.0 | 0.00 | 0.01 | 0.00 | 90 | 1007.2 |
| 20260503203016 | 47 | 169 | 0.0 | 1.0 | 0.00 | 0.01 | 0.00 | 89 | 1007.3 |
| 20260503201514 | 47 | 192 | 0.0 | 2.0 | 0.00 | 0.01 | 0.00 | 89 | 1007.3 |
| 20260503194506 | 48 | 183 | 0.0 | 1.0 | 0.00 | 0.01 | 0.00 | 89 | 1007.5 |
| 20260503193006 | 48 | 183 | 0.0 | 2.0 | 0.00 | 0.01 | 0.00 | 88 | 1007.6 |
| 20260503191502 | 49 | 170 | 0.0 | 2.0 | 0.00 | 0.01 | 0.00 | 88 | 1007.6 |
| 20260503190159 | 49 | 173 | 0.0 | 2.0 | 0.00 | 0.01 | 0.00 | 88 | 1007.6 |